Tracking 20232 objects as of 18-Jan-2020
HD Live streaming from Space Station
objects crossing your sky now

ANIK A2 (TELESAT 2)

Track ANIK A2 (TELESAT 2) now!
ANIK A2 (TELESAT 2) is classified as:


NORAD ID: 6437
Int'l Code: 1973-023A
Perigee: 35,863.5 km
Apogee: 35,993.7 km
Inclination: 12.1 °
Period: 1,443.0 minutes
Semi major axis: 42299 km
RCS: 3.1458 m2 (large)
Launch date: April 20, 1973
Source: Canada (CA)
Launch site: AIR FORCE EASTERN TEST RANGE (AFETR)
aabbcc
Your satellite tracking list
Your tracking list is empty




NASA's NSSDC Master Catalog

Two Line Element Set (TLE):
1  6437U 73023A   20016.91299418  .00000115  00000-0  00000+0 0  9993
2  6437  12.0807 319.2063 0015396   8.5454 168.1703  0.99792601 96930
Source of the keplerian elements: AFSPC